Погода Сайдана 2 недели

Сайда, Ливан

17 - 30 июля
  • 17июля
    Сегодня
    +26°
    +31°
    Ясно и безоблачно
    ВремяПогодаТемператураВлажностьДавлениеВетер, м/сВероятность осадков
    00:00Ясно и безоблачно+28°C87 %751 мм1.2 м/с0 %
    03:00Ясно и безоблачно+27°C80 %750 мм1.7 м/с0 %
    06:00Ясно и безоблачно+27°C71 %751 мм2.1 м/с0 %
    09:00Ясно и безоблачно+30°C76 %751 мм3.3 м/с0 %
    12:00Ясно и безоблачно+30°C81 %752 мм4.2 м/с0 %
    15:00Ясно и безоблачно+31°C74 %752 мм2.5 м/с0 %
    18:00Ясно и безоблачно+30°C79 %751 мм1.8 м/с0 %
    21:00Ясно и безоблачно+28°C88 %752 мм0.6 м/с0 %
  • 18июля
    Четверг
    +27°
    +31°
    Ясно и безоблачно
    ВремяПогодаТемператураВлажностьДавлениеВетер, м/сВероятность осадков
    00:00Ясно и безоблачно+27°C89 %751 мм0.9 м/с0 %
    03:00Ясно и безоблачно+28°C82 %751 мм1.3 м/с0 %
    06:00Ясно и безоблачно+27°C78 %751 мм1.3 м/с0 %
    09:00Ясно и безоблачно+30°C71 %752 мм2.7 м/с0 %
    12:00Ясно и безоблачно+30°C75 %752 мм3.7 м/с0 %
    15:00Ясно и безоблачно+31°C76 %751 мм2.6 м/с0 %
    18:00Ясно и безоблачно+30°C82 %750 мм2.4 м/с0 %
    21:00Ясно и безоблачно+28°C88 %751 мм1.8 м/с0 %
  • 19июля
    Пятница
    +27°
    +32°
    Ясно и безоблачно
    ВремяПогодаТемператураВлажностьДавлениеВетер, м/сВероятность осадков
    00:00Ясно и безоблачно+27°C87 %750 мм2.5 м/с0 %
    03:00Ясно и безоблачно+27°C72 %749 мм2.6 м/с0 %
    06:00Ясно и безоблачно+28°C66 %749 мм3.4 м/с0 %
    09:00Ясно и безоблачно+31°C73 %749 мм4.6 м/с0 %
    12:00Ясно и безоблачно+31°C80 %749 мм5.9 м/с0 %
    15:00Ясно и безоблачно+32°C75 %749 мм4.4 м/с0 %
    18:00Ясно и безоблачно+31°C78 %748 мм3.3 м/с0 %
    21:00Ясно и безоблачно+29°C86 %748 мм2.7 м/с0 %
  • 20июля
    Суббота
    +27°
    +32°
    Ясно и безоблачно
    ВремяПогодаТемператураВлажностьДавлениеВетер, м/сВероятность осадков
    00:00Ясно и безоблачно+28°C85 %748 мм2.6 м/с0 %
    03:00Ясно и безоблачно+27°C74 %747 мм3.0 м/с0 %
    06:00Ясно и безоблачно+28°C73 %747 мм3.5 м/с0 %
    09:00Ясно и безоблачно+31°C79 %748 мм4.3 м/с0 %
    12:00Ясно и безоблачно+31°C81 %748 мм5.6 м/с0 %
    15:00Ясно и безоблачно+31°C78 %748 мм3.8 м/с0 %
    18:00Ясно и безоблачно+31°C77 %748 мм2.4 м/с0 %
    21:00Ясно и безоблачно+29°C84 %748 мм2.5 м/с0 %
  • 21июля
    Воскресенье
    +27°
    +32°
    Ясно и безоблачно
    ВремяПогодаТемператураВлажностьДавлениеВетер, м/сВероятность осадков
    00:00Ясно и безоблачно+29°C82 %748 мм2.3 м/с0 %
    03:00Ясно и безоблачно+29°C73 %748 мм1.7 м/с0 %
    06:00Ясно и безоблачно+28°C68 %749 мм2.7 м/с0 %
    09:00Ясно и безоблачно+31°C74 %750 мм4.1 м/с0 %
    12:00Ясно и безоблачно+31°C81 %750 мм5.5 м/с0 %
    15:00Ясно и безоблачно+32°C81 %750 мм3.9 м/с0 %
    18:00Ясно и безоблачно+31°C78 %750 мм2.0 м/с0 %
    21:00Ясно и безоблачно+29°C78 %750 мм2.8 м/с0 %
Мы используем cookies
Соглашаюсь